This is the latest recevied weather packets stored in our database for station/object I2HLY-4. If no packets are shown the sender has not sent any weather packets the latest 10 day(s).
| Time | Temp. | Humidity | Pressure | Rain* | Wind** | Luminosity | Snow |
|---|---|---|---|---|---|---|---|
| 1778134637 | 7.22° C | 97% | 1013.7 hPa | 0 mm | - | - | - |
| 1778133732 | 6.67° C | 97% | 1013.7 hPa | 0 mm | - | - | - |
| 1778132848 | 6.11° C | 96% | 1013.6 hPa | 0 mm | - | - | - |
| 1778131949 | 6.11° C | 97% | 1013.5 hPa | 0 mm | - | - | - |
| 1778131042 | 5.56° C | 96% | 1013.2 hPa | 0 mm | - | - | - |
| 1778130138 | 5.56° C | 96% | 1013.2 hPa | 0 mm | - | - | - |
| 1778129240 | 5.56° C | 96% | 1013.1 hPa | 0 mm | - | - | - |
| 1778128335 | 5.56° C | 96% | 1013.1 hPa | 0 mm | - | - | - |
| 1778127437 | 5.56° C | 96% | 1012.8 hPa | 2.03 mm | - | - | - |
| 1778126531 | 5.56° C | 96% | 1012.8 hPa | 2.03 mm | - | - | - |
| 1778125645 | 5.56° C | 96% | 1012.9 hPa | 2.03 mm | - | - | - |
| 1778124744 | 6.11° C | 96% | 1013.1 hPa | 2.03 mm | - | - | - |
| 1778123839 | 6.11° C | 95% | 1013.2 hPa | 1.02 mm | - | - | - |
| 1778122935 | 6.11° C | 96% | 1012.9 hPa | 3.05 mm | - | - | - |
| 1778122050 | 6.67° C | 96% | 1013.1 hPa | 4.06 mm | - | - | - |
| 1778121147 | 6.67° C | 96% | 1012.9 hPa | 5.08 mm | - | - | - |
| 1778120242 | 6.67° C | 96% | 1013.1 hPa | 4.06 mm | - | - | - |
| 1778119339 | 6.67° C | 96% | 1012.8 hPa | 2.03 mm | - | - | - |
| 1778118433 | 6.67° C | 96% | 1012.4 hPa | 1.02 mm | - | - | - |
| 1778117534 | 6.67° C | 96% | 1012.3 hPa | 0 mm | - | - | - |
| 1778116651 | 6.67° C | 96% | 1011.9 hPa | 0 mm | - | - | - |
| 1778114833 | 6.67° C | 96% | 1012.1 hPa | 0 mm | - | - | - |
| 1778113947 | 6.67° C | 96% | 1012.4 hPa | 0 mm | - | - | - |
| 1778113048 | 6.67° C | 96% | 1012.4 hPa | 0 mm | - | - | - |
| 1778111245 | 6.67° C | 97% | 1012.4 hPa | 0 mm | - | - | - |
* Rain latest hour (hover to see other rain measurements)
** Current wind speed in m/s (hover to see current wind gust speed)